GFSFLT1_500_spd_051.txt.gz
Wind_Speed
17 18 19 19 20 19 19 19 19 18 19 19 19 18 19 19 21 21 22 23 23 23 23 23 23 24 24 23 23 25 25 25 26
18 19 19 20 21 22 22 22 22 22 22 22 22 23 24 24 25 25 25 26 27 26 26 25 25 27 27 27 27 26 26 26 27
20 20 19 19 20 20 20 21 21 21 22 23 22 24 25 26 27 27 26 27 27 27 26 26 26 26 26 25 25 26 27 28 29
20 19 19 19 19 18 18 18 19 20 21 21 22 22 22 24 26 28 28 28 27 26 25 25 24 24 25 25 26 28 29 30 31
22 21 20 19 18 18 19 19 19 19 18 19 20 23 24 25 27 26 25 26 26 26 24 25 26 27 28 29 30 30 31 32 32
23 23 22 20 19 18 18 19 20 20 21 23 26 27 30 31 32 32 30 29 28 27 27 28 29 30 30 31 32 33 34 33 32
27 25 24 23 22 23 22 23 24 24 24 26 27 28 27 28 27 28 30 32 32 31 31 31 32 33 33 33 35 36 36 35 36
30 29 27 26 26 26 27 26 26 26 26 28 29 28 28 29 26 25 22 24 30 32 33 34 34 37 37 36 37 38 38 38 39
31 30 29 27 28 29 30 29 29 28 29 30 31 31 31 31 29 27 27 27 27 27 28 30 33 36 36 37 40 41 42 44 45
32 32 30 30 30 32 32 31 31 31 31 32 32 33 34 33 31 28 30 30 31 33 34 36 37 40 40 41 43 45 46 47 47
32 33 31 31 32 33 33 34 34 34 33 33 34 35 35 34 32 31 31 35 37 39 40 40 41 43 44 44 46 47 48 49 49
33 33 32 32 33 35 34 34 35 35 35 35 36 35 36 32 32 33 36 38 41 43 43 43 44 46 46 46 47 48 49 50 50
29 37 35 32 34 35 36 36 36 37 37 36 37 37 37 35 36 38 40 43 43 45 46 46 46 46 47 48 50 51 52 53 54
38 38 37 34 35 36 35 37 37 37 37 38 38 38 39 39 40 41 44 46 46 47 48 48 47 49 51 51 53 54 55 56 57
40 40 39 37 37 37 36 37 37 37 38 38 40 41 41 42 44 45 46 47 49 49 49 50 52 53 54 55 56 58 59 60 60
41 45 45 38 38 37 38 38 39 38 39 40 41 42 43 45 46 47 48 50 50 52 53 55 56 56 57 57 58 60 60 61 62
42 42 42 44 38 38 38 39 39 40 38 41 44 44 45 47 48 49 52 52 53 55 57 58 59 59 59 60 62 63 64 66 66
43 39 37 33 41 41 40 41 40 41 41 43 45 46 48 48 48 51 54 55 57 59 60 61 62 63 64 65 65 66 67 68 68
43 42 38 40 44 44 44 42 41 42 43 46 47 48 50 51 52 53 55 56 58 59 59 60 63 65 67 69 70 71 70 70 71
43 42 43 43 44 46 48 47 42 44 46 46 46 48 51 53 55 56 58 60 60 60 60 61 63 66 69 69 70 70 71 72 73

GFSFLT1_500_spd_054.txt.gz
Wind_Speed
22 21 20 21 21 20 20 19 18 18 18 19 19 20 19 20 20 22 22 22 23 24 24 24 24 24 24 23 22 23 23 22 23
23 22 22 21 21 21 21 21 21 22 22 23 23 24 24 25 26 26 28 28 28 27 26 26 26 25 25 24 24 24 24 24 25
24 23 22 21 20 20 20 21 21 22 22 22 22 21 22 22 24 23 27 27 28 28 27 27 27 26 25 24 24 22 22 23 24
25 23 22 20 20 20 20 20 19 20 20 20 20 20 20 21 22 23 25 26 27 27 26 27 27 25 25 24 24 25 24 26 26
25 24 23 21 20 21 21 20 20 20 20 19 19 19 21 23 25 30 31 32 32 30 28 27 27 27 26 27 28 27 28 28 28
25 24 23 21 20 20 20 21 20 19 20 21 22 24 26 26 26 28 28 28 31 33 33 32 31 30 29 28 29 30 30 31 31
25 25 25 24 22 23 23 23 24 24 25 25 27 27 27 26 26 27 27 26 22 24 32 35 35 35 33 32 34 34 34 35 34
26 26 27 27 26 27 27 27 28 28 28 28 29 29 28 28 28 30 30 28 26 25 25 25 24 27 30 31 32 33 34 34 36
27 28 28 28 27 29 30 30 31 31 31 30 31 32 31 30 30 30 32 30 29 28 27 27 30 31 32 34 35 37 38 38 39
30 29 28 28 29 30 32 33 34 34 34 33 34 34 33 33 31 32 33 31 30 30 30 32 35 37 37 38 37 38 40 41 42
32 31 30 29 30 31 32 35 35 36 36 36 37 37 36 36 34 33 31 30 31 33 34 37 39 39 39 40 41 42 43 43 44
33 33 33 30 30 30 32 34 36 37 37 37 37 39 39 38 36 34 32 32 34 36 38 40 41 42 42 44 43 44 45 47 48
34 35 36 32 32 35 32 34 35 38 39 39 39 40 40 40 37 36 36 35 37 39 41 42 43 45 45 45 46 48 51 51 51
34 36 38 36 36 40 34 36 37 37 38 39 40 40 40 39 39 38 38 39 40 40 42 45 46 46 46 49 51 53 53 53 54
35 37 36 38 37 40 45 41 45 36 37 39 39 41 40 39 40 40 41 41 43 44 44 46 47 48 50 53 55 56 55 55 55
37 37 38 38 38 40 43 46 43 38 38 39 40 41 43 40 41 42 42 42 44 47 47 49 51 53 55 56 56 56 57 57 58
37 37 39 39 40 41 39 40 47 39 40 41 41 43 39 41 42 43 44 46 47 48 49 52 56 58 58 58 58 58 59 60 61
38 38 39 40 38 39 42 39 37 39 41 43 50 42 42 43 44 43 45 47 49 50 53 57 59 59 60 61 62 63 65 64 64
39 39 39 41 41 40 39 42 43 44 39 51 42 40 45 47 45 46 47 48 50 53 55 58 58 60 62 65 66 68 68 67 67
39 39 38 39 41 41 40 43 42 42 43 42 42 46 48 48 48 48 50 52 56 58 59 57 58 61 64 65 66 67 69 69 71

GFSFLT1_500_spd_057.txt.gz
Wind_Speed
28 27 26 25 24 22 22 22 21 21 20 20 21 21 21 21 21 24 23 24 25 25 25 25 26 26 25 25 24 24 24 23 22
27 28 27 26 24 23 23 23 23 23 23 24 23 23 22 23 22 25 24 24 24 24 25 26 26 26 27 26 26 26 26 24 24
28 27 27 26 26 24 23 23 22 22 23 23 23 21 21 19 20 21 21 22 23 24 24 26 27 27 26 26 26 25 25 24 23
28 27 27 26 25 25 23 22 21 22 21 21 21 20 19 18 19 21 22 25 27 29 30 29 28 27 25 26 26 26 25 25 26
26 26 26 25 24 24 23 22 21 21 22 21 20 20 19 20 23 25 27 27 27 27 27 32 33 30 28 27 28 28 28 28 27
24 24 24 24 24 24 23 22 22 22 22 21 20 21 22 24 26 27 27 25 24 25 25 22 25 31 32 32 32 32 31 31 31
24 23 23 23 24 24 24 24 24 24 25 25 25 25 26 27 28 29 27 27 27 27 27 25 23 21 21 26 33 35 35 34 34
26 26 25 24 24 25 27 28 27 27 29 29 29 29 28 28 29 31 30 29 29 29 29 29 28 26 25 26 28 30 31 31 33
26 27 27 26 25 26 26 28 31 32 32 32 32 31 31 32 32 32 33 32 31 31 30 30 30 28 29 30 32 34 34 34 34
26 27 27 27 27 27 27 27 30 32 34 35 35 35 35 35 35 35 35 34 33 33 31 30 30 31 33 34 35 35 35 36 37
27 28 29 29 29 29 29 28 27 30 33 35 37 37 37 37 37 36 36 36 35 34 32 31 32 34 35 36 36 36 38 38 38
29 30 31 32 31 31 31 32 31 31 32 33 36 38 39 39 39 39 38 38 37 36 35 35 36 36 37 37 38 39 39 40 41
30 30 31 30 31 32 31 30 32 36 35 34 36 38 38 39 39 39 39 39 38 39 38 38 38 39 40 40 41 41 41 43 46
30 30 31 31 32 30 31 32 34 35 39 38 38 39 38 39 39 38 39 39 38 39 40 40 41 41 42 43 44 44 45 48 50
31 32 31 32 32 32 32 32 35 38 37 41 44 41 38 39 39 38 40 42 38 38 40 43 43 43 45 46 46 48 51 53 53
35 35 32 34 34 33 34 32 34 36 36 38 42 47 41 40 40 41 40 38 39 42 42 44 45 46 47 48 50 52 55 55 54
35 35 34 35 35 35 34 32 34 35 38 37 33 35 42 42 45 47 40 41 43 43 45 47 48 50 50 52 55 56 56 56 56
36 34 35 37 36 35 35 34 35 37 38 39 39 37 37 46 40 37 39 42 43 44 47 50 51 52 55 57 58 59 59 60 61
35 35 37 37 36 36 35 35 34 36 37 33 38 37 39 40 39 38 40 41 44 47 49 51 53 56 57 58 60 61 62 63 63
39 39 37 36 36 35 36 37 35 34 32 43 41 40 42 42 41 41 42 45 48 50 52 55 56 58 59 60 60 61 62 63 64

GFSFLT1_500_spd_060.txt.gz
Wind_Speed
27 27 27 26 25 25 25 25 25 24 24 24 24 23 22 22 22 22 22 23 23 24 25 26 27 27 27 26 25 24 23 24 23
27 27 27 28 28 28 27 27 25 25 26 26 26 25 24 24 24 22 21 21 20 22 23 24 25 25 25 25 25 25 25 26 25
28 28 29 29 29 28 28 27 27 26 25 25 25 23 23 23 22 20 19 20 20 22 25 27 28 28 26 25 24 24 25 25 25
27 27 28 28 28 27 26 26 25 26 25 24 23 21 22 22 21 20 20 22 25 27 29 29 26 28 31 29 25 25 25 26 25
25 25 26 26 26 27 25 26 25 24 24 23 22 22 22 22 22 22 23 25 27 28 27 24 24 23 22 27 29 28 28 27 27
24 24 23 23 23 23 24 25 24 23 23 23 23 23 24 24 25 26 26 26 27 29 28 27 26 24 21 20 22 28 33 33 33
24 24 23 23 23 23 24 24 25 26 26 26 26 26 27 28 29 29 29 28 29 30 29 29 28 28 28 26 24 24 24 25 26
24 23 23 24 24 23 23 24 25 28 30 30 30 30 31 32 32 33 32 31 32 31 31 30 30 30 31 29 27 27 27 29 30
25 24 24 24 24 24 25 25 25 26 28 31 33 33 32 33 34 35 36 36 36 34 33 31 32 32 31 31 30 30 32 33 33
25 25 24 25 25 25 26 26 27 28 27 28 30 33 34 35 36 37 38 38 39 36 35 33 33 32 31 31 30 33 34 34 34
27 27 27 28 27 28 28 28 29 30 30 29 28 30 31 33 35 37 38 39 39 38 37 36 35 34 33 33 34 34 35 36 36
26 27 28 28 27 27 26 28 29 29 32 31 32 33 32 33 35 37 38 38 39 39 39 39 37 36 35 36 36 36 37 38 39
28 28 28 27 27 27 27 28 27 28 31 33 33 34 37 35 36 37 39 39 39 39 39 39 38 38 38 39 38 40 41 41 41
31 32 31 29 29 29 29 29 28 29 30 31 33 34 36 39 41 39 40 40 39 40 40 40 40 39 39 39 40 44 44 43 44
32 33 34 33 33 33 32 31 31 32 32 31 31 31 32 33 36 41 43 42 40 42 41 39 39 40 42 41 43 45 46 46 47
32 32 32 34 35 35 34 33 33 33 32 33 33 33 33 37 30 39 39 40 42 45 47 41 41 42 43 43 44 47 48 49 51
35 33 31 32 34 33 34 35 36 35 34 33 34 35 35 37 36 37 39 41 40 38 40 42 42 43 44 46 48 49 50 53 55
38 36 35 34 33 34 34 35 34 35 34 34 34 33 33 35 37 37 37 39 41 41 41 41 43 45 47 49 50 52 55 57 58
41 40 38 35 34 36 35 35 35 36 35 34 34 35 35 42 40 38 40 40 41 41 42 44 45 47 49 51 54 56 58 59 60
43 44 43 40 39 37 38 37 36 37 37 36 37 37 38 39 39 39 40 42 44 45 45 47 49 51 53 56 58 59 60 60 61

GFSFLT1_500_spd_063.txt.gz
Wind_Speed
23 24 24 25 25 24 24 24 25 25 26 25 23 24 24 25 25 25 25 25 26 25 24 22 22 23 23 24 24 25 25 25 24
25 25 24 24 24 25 26 26 26 25 25 25 25 26 27 27 26 26 25 25 23 22 22 22 23 25 26 27 26 25 25 23 24
25 25 25 25 25 25 25 26 26 25 24 24 24 25 25 25 24 23 23 23 22 22 24 26 28 29 28 27 29 28 25 24 23
21 22 23 23 23 24 25 24 24 24 23 23 23 23 24 23 24 23 23 22 22 24 27 29 29 27 25 24 21 24 27 25 24
20 20 21 21 22 23 24 24 23 23 23 23 22 22 22 24 23 23 24 25 26 27 28 29 28 28 26 23 21 21 21 26 28
21 21 21 21 21 21 21 22 22 23 23 24 24 24 24 24 25 26 26 27 29 30 28 29 29 29 28 27 27 25 23 21 19
23 23 22 23 23 23 22 22 22 22 23 24 27 28 28 28 29 29 29 30 31 32 31 32 32 31 30 29 29 29 27 24 23
25 25 24 23 23 22 22 23 23 23 23 25 27 30 32 33 34 34 33 31 31 32 33 34 35 34 31 30 29 30 30 28 26
27 27 26 26 25 24 23 24 24 25 26 26 27 29 31 34 35 35 36 35 35 36 36 36 36 35 33 32 31 31 31 30 29
26 26 26 27 26 26 26 25 26 28 28 29 29 29 29 30 32 34 35 35 35 35 35 35 35 34 34 33 33 31 30 31 32
27 27 27 27 27 27 26 27 27 28 29 30 31 31 31 32 31 32 33 34 34 34 35 35 34 35 35 34 35 34 33 34 34
27 28 28 27 26 26 26 27 27 28 29 30 30 32 33 34 33 35 36 35 35 35 36 36 35 35 36 35 36 36 36 36 35
28 29 30 28 27 28 28 29 29 30 30 31 32 32 33 34 35 36 37 40 40 39 38 38 38 37 38 38 37 38 40 40 43
28 30 30 31 32 32 32 31 31 31 32 32 32 33 32 33 33 33 34 33 35 41 41 40 39 39 39 39 38 40 40 42 42
29 30 31 32 34 34 34 35 34 34 36 35 35 34 33 34 34 34 37 36 32 31 37 38 39 41 41 44 41 43 44 44 44
33 34 34 33 34 33 33 33 33 33 33 35 36 37 36 36 36 35 35 37 38 37 39 41 42 42 41 41 44 44 45 44 45
38 39 37 36 35 34 34 34 34 34 34 34 33 34 35 37 36 37 35 35 38 39 38 40 40 41 42 42 43 45 46 47 48
44 44 42 39 38 38 37 36 35 34 35 35 35 34 35 37 37 37 38 42 42 40 39 40 40 42 44 44 46 47 49 51 52
46 46 46 45 42 41 41 39 36 37 37 37 36 37 36 36 36 38 40 40 41 42 43 42 43 45 45 47 50 51 53 54 56
48 49 49 49 48 47 44 41 41 38 40 39 39 39 38 38 39 39 39 40 42 45 47 48 47 49 49 50 52 53 55 57 58

GFSFLT1_500_spd_066.txt.gz
Wind_Speed
19 20 20 21 21 21 21 22 22 21 21 22 22 23 25 24 24 25 25 26 27 26 24 23 21 21 21 22 24 24 23 22 22
19 20 21 20 21 21 22 21 21 21 22 23 23 23 25 25 26 26 26 25 25 23 21 20 20 22 24 26 27 25 25 24 22
18 18 19 20 20 21 21 21 21 21 23 22 22 22 23 23 24 24 24 23 22 22 21 21 22 25 26 25 24 23 19 20 23
17 17 18 18 19 19 19 20 20 21 22 22 22 23 23 22 22 22 22 22 22 23 23 23 25 26 26 26 24 21 20 19 20
19 20 19 19 20 20 19 19 19 19 20 21 21 22 22 23 23 23 23 23 24 24 25 26 27 28 28 28 26 25 24 22 18
23 22 21 21 21 21 21 21 21 22 22 22 23 23 23 24 25 25 26 27 28 28 27 28 28 28 28 29 28 27 26 26 24
26 25 24 23 23 23 23 22 22 22 22 22 23 24 25 27 28 29 29 30 32 34 32 31 31 31 30 31 30 28 27 27 27
25 25 24 24 23 23 24 24 23 23 23 24 25 25 26 27 29 31 34 34 35 36 36 36 34 34 35 33 31 30 28 27 27
23 24 24 24 24 24 25 25 25 25 25 26 27 28 28 28 29 29 30 32 35 37 37 37 37 35 33 32 31 30 30 29 28
24 25 25 26 26 23 24 24 25 25 26 27 28 29 30 30 31 31 31 30 30 31 33 33 32 33 33 33 32 31 31 31 31
26 26 27 28 26 24 25 25 24 25 25 27 28 29 30 30 31 30 30 32 32 33 33 33 33 33 32 31 32 32 32 32 33
26 27 28 29 27 28 27 26 26 26 27 28 29 31 31 31 32 32 32 32 33 34 34 37 36 35 35 34 34 34 35 35 35
26 27 28 28 28 29 30 29 28 28 30 32 31 31 32 33 32 31 31 32 32 32 33 35 35 37 38 37 37 36 35 35 37
28 29 29 29 29 29 30 30 30 32 34 34 34 33 35 35 34 33 33 34 34 33 33 32 33 30 33 35 37 38 38 40 42
31 32 32 32 31 30 31 31 31 32 33 32 32 32 32 33 33 32 33 33 34 35 35 33 34 35 38 40 40 41 43 41 41
33 34 35 35 34 35 33 34 34 33 34 33 34 31 32 32 31 32 32 33 34 34 36 37 38 37 38 38 39 40 41 41 41
35 36 38 38 39 39 36 36 37 37 38 37 37 34 32 34 32 32 32 32 33 34 36 36 36 38 38 39 39 41 43 44 44
39 38 40 41 42 40 42 42 41 42 43 41 39 36 35 35 35 36 36 35 34 35 37 39 38 38 40 41 43 45 46 47 48
42 41 43 45 44 43 44 46 47 46 47 40 38 39 38 38 37 37 38 38 37 37 39 40 40 39 41 43 45 46 49 51 52
43 43 46 48 46 45 47 47 46 47 43 43 41 39 39 41 40 39 39 40 39 40 41 44 45 46 45 47 49 50 52 54 55

GFSFLT1_500_spd_069.txt.gz
Wind_Speed
17 18 19 19 19 18 18 18 18 18 19 20 20 21 22 22 23 24 24 25 25 25 25 24 23 20 19 19 20 22 23 23 23
16 16 17 18 18 19 19 19 19 19 19 19 20 21 21 23 24 24 24 25 24 23 22 21 20 20 19 21 22 22 21 20 19
19 18 17 17 16 17 17 18 19 18 18 18 20 21 21 22 22 23 24 23 23 22 21 21 21 21 21 22 22 22 21 19 19
19 18 18 17 17 17 17 17 19 18 18 18 18 20 21 22 21 22 23 23 23 22 21 22 23 23 23 23 23 23 22 20 20
21 20 21 20 19 18 18 19 19 20 21 22 21 22 23 23 24 23 23 24 23 23 24 25 26 26 26 25 25 24 24 23 22
24 24 24 23 23 22 22 22 22 22 22 22 22 22 22 23 24 25 27 28 27 26 27 28 29 30 30 30 29 28 28 26 24
25 24 24 24 23 23 23 23 22 23 23 23 23 24 23 24 25 25 26 28 30 31 32 31 32 33 33 33 33 33 33 30 27
23 22 21 22 22 22 23 23 23 23 23 23 23 24 24 25 25 26 26 27 28 30 32 35 35 36 36 35 35 34 31 30 29
20 20 21 22 23 22 23 23 23 22 23 23 24 25 25 26 26 27 27 27 28 29 29 29 30 31 32 32 32 32 31 30 30
20 21 23 25 25 24 23 24 23 23 23 24 24 24 24 25 25 26 26 26 26 26 28 29 30 31 30 31 31 31 31 31 31
23 23 26 28 26 25 25 25 24 23 24 25 25 26 27 28 28 29 28 27 27 26 27 28 29 30 32 33 31 31 31 31 31
26 26 27 27 25 25 25 25 25 26 27 27 28 29 30 32 32 30 29 29 28 28 29 30 29 29 31 34 36 36 33 32 32
28 28 29 28 26 25 25 25 25 26 27 28 28 29 30 31 31 30 30 31 31 29 29 30 31 33 32 31 31 30 31 32 34
29 30 30 29 28 27 26 26 26 27 28 28 28 29 28 28 27 27 28 27 27 28 29 29 30 31 32 32 31 31 33 35 36
32 31 31 32 31 31 31 30 28 31 31 32 32 32 31 30 30 28 28 28 27 28 28 28 29 30 31 32 33 32 34 35 36
34 33 33 33 34 35 33 33 34 34 34 34 36 36 36 35 35 31 30 30 30 29 29 30 30 31 32 33 34 34 35 35 36
36 37 36 35 36 37 35 35 36 36 37 38 40 40 41 41 40 35 33 33 33 33 33 33 34 35 35 34 35 37 38 38 39
40 40 39 38 38 38 37 38 39 39 39 39 41 41 41 42 41 39 38 37 37 37 37 37 37 38 37 37 38 38 40 42 42
41 42 41 40 40 41 42 42 42 42 39 40 43 40 40 41 42 41 40 39 39 39 41 41 40 41 41 41 41 42 42 42 45
37 39 39 41 43 45 45 45 45 44 44 45 45 45 44 41 44 45 45 42 42 42 44 45 43 44 44 42 44 45 45 44 45

GFSFLT1_500_spd_075.txt.gz
Wind_Speed
17 17 17 17 18 19 20 20 20 20 20 21 20 21 22 21 21 20 21 22 22 24 24 23 23 23 22 21 19 19 19 20 20
18 18 18 19 20 21 20 19 19 20 20 20 20 20 20 20 20 21 21 21 22 23 23 23 22 22 21 21 21 21 21 21 20
21 21 20 21 22 21 21 20 20 20 19 19 19 19 20 20 21 21 22 22 23 24 24 23 22 23 23 22 22 22 23 23 23
21 21 21 21 22 22 21 21 22 21 21 21 22 22 23 22 23 23 23 23 24 24 24 24 24 24 24 25 25 25 25 25 26
21 20 21 20 21 22 22 22 22 22 22 23 23 23 24 23 22 23 23 23 23 24 25 25 26 26 27 27 28 28 28 28 28
20 21 21 20 22 22 22 22 21 21 21 22 22 22 22 22 22 23 23 23 23 23 24 25 26 26 28 28 29 30 30 31 30
20 21 21 20 20 20 20 19 20 20 21 21 22 22 22 21 21 22 24 24 24 25 25 24 26 25 26 26 27 26 26 27 27
21 21 20 19 18 18 19 20 21 21 21 21 21 21 21 21 20 21 24 25 25 25 24 25 25 26 26 25 25 26 27 27 26
21 19 19 18 18 19 21 22 22 22 21 21 20 20 20 20 20 22 22 25 27 27 28 28 29 27 26 25 25 25 26 27 28
21 20 19 20 21 20 22 22 23 21 21 21 21 20 20 20 20 21 22 22 23 25 26 26 27 28 28 28 27 27 26 25 26
23 22 21 22 23 23 23 23 23 22 22 21 21 21 21 21 22 21 21 21 22 23 23 24 24 24 26 27 27 27 27 26 26
26 25 24 26 26 26 25 25 24 23 23 22 22 23 23 23 23 23 23 23 23 23 25 24 24 23 23 25 26 27 28 28 28
29 28 28 29 29 29 28 27 27 26 26 25 24 25 25 25 26 27 27 26 25 25 27 29 28 26 26 26 26 27 28 28 29
31 31 31 32 32 32 31 31 31 29 28 28 27 27 26 26 26 28 29 29 28 28 31 30 31 31 30 30 29 29 29 30 31
34 35 34 35 35 34 35 34 35 33 31 31 31 30 29 29 29 30 31 31 31 31 31 32 32 33 35 35 34 33 33 33 34
36 37 37 38 38 39 39 39 38 36 35 33 33 33 31 31 32 33 33 33 34 33 33 33 34 35 38 39 39 38 37 37 38
39 39 40 41 42 43 43 42 43 41 39 36 37 34 35 33 36 36 36 36 37 37 36 39 39 39 42 45 44 41 43 43 42
42 43 44 45 45 45 46 45 46 45 44 40 40 38 37 38 38 39 40 41 43 42 42 43 43 43 44 39 39 45 48 48 46
45 46 46 46 47 48 48 48 47 48 47 45 43 44 42 42 41 42 44 45 46 48 47 48 49 49 48 48 50 49 47 45 47
46 47 45 47 48 49 50 51 50 50 51 50 48 47 46 46 46 46 48 48 49 50 51 53 52 51 51 51 50 51 56 48 49

GFSFLT1_500_spd_078.txt.gz
Wind_Speed
15 15 16 16 17 16 17 18 18 18 19 19 19 18 18 19 19 18 18 18 19 21 21 22 23 22 22 20 20 19 20 20 20
16 17 18 19 19 19 20 20 19 19 20 19 18 17 16 16 17 19 20 20 20 20 20 21 21 21 21 20 20 21 21 21 22
18 18 18 19 19 19 19 19 19 19 20 20 20 19 19 19 21 21 22 22 22 22 20 21 21 21 22 21 21 21 22 23 23
18 18 19 19 17 17 17 17 18 19 20 21 21 21 22 21 21 22 21 21 22 22 21 21 21 22 23 22 23 23 24 24 25
19 17 17 17 16 16 17 17 18 18 19 20 20 21 21 21 21 20 20 21 22 22 22 22 22 23 23 23 23 23 24 26 26
17 16 17 17 16 16 17 17 16 16 17 18 20 20 21 21 22 20 19 19 20 21 22 23 23 23 23 24 24 24 23 23 23
17 17 17 17 17 16 15 15 15 15 18 19 20 20 20 20 20 20 19 19 19 20 21 23 23 24 24 24 23 23 22 23 23
18 18 18 17 17 15 15 14 15 17 18 19 19 18 18 18 18 19 19 19 19 20 22 22 24 24 25 25 24 24 24 24 24
19 20 18 18 17 17 16 16 17 18 18 18 19 17 17 17 15 18 18 19 19 20 21 22 23 23 23 23 25 25 25 25 25
20 21 20 20 19 18 18 19 19 20 19 19 19 18 18 18 14 19 18 18 19 20 21 20 20 21 22 21 21 22 24 24 25
21 21 21 21 21 20 21 21 22 22 22 22 20 20 20 19 18 19 20 20 21 21 21 20 20 21 23 22 20 21 21 22 24
24 23 23 23 24 25 24 24 24 25 25 25 23 23 22 22 21 19 23 22 22 23 23 22 23 24 24 25 25 24 24 24 24
27 27 27 27 27 26 27 28 28 28 27 28 26 26 26 26 24 24 22 25 26 24 26 27 27 26 27 27 28 28 28 28 28
30 29 30 29 28 29 31 32 32 32 30 30 29 30 30 30 27 28 28 26 28 28 29 30 30 28 28 29 30 31 31 32 32
32 31 32 32 33 34 35 35 35 35 36 34 33 33 34 34 31 31 32 32 31 29 30 31 31 32 31 30 32 34 35 35 34
34 34 34 35 36 37 36 38 39 39 40 39 38 38 36 36 35 35 35 35 34 32 33 35 34 35 36 35 36 35 37 39 41
37 37 38 38 38 39 40 41 42 42 42 42 43 42 41 38 39 40 40 39 37 37 37 38 39 40 39 40 41 41 40 41 32
40 39 40 40 40 41 43 42 43 44 45 45 46 45 43 42 42 43 43 42 40 40 41 42 43 44 44 44 44 46 44 43 45
41 41 42 42 43 43 43 45 46 47 47 48 47 49 49 48 46 46 45 46 45 44 45 47 47 47 47 49 49 49 49 47 50
45 44 44 43 44 45 45 46 46 48 50 49 50 51 52 51 50 49 49 48 47 46 49 49 50 49 50 52 54 54 52 52 45

GFSFLT1_500_spd_081.txt.gz
Wind_Speed
14 13 13 13 14 15 17 17 17 17 16 17 18 18 18 18 18 18 18 18 19 20 21 21 21 19 18 18 18 18 18 18 20
14 15 15 15 15 15 16 17 16 16 16 16 16 17 17 18 18 19 20 21 21 21 21 20 20 19 18 19 19 18 19 19 20
16 16 15 15 16 16 15 15 14 15 14 15 15 17 18 18 19 20 20 20 20 19 19 19 19 20 19 19 20 20 20 20 21
16 16 16 16 15 14 14 14 14 13 13 14 15 15 17 18 18 18 19 19 20 19 19 19 19 19 19 19 20 20 21 21 21
16 17 16 15 15 15 14 14 13 13 12 13 15 16 16 18 19 19 19 19 19 19 18 19 19 19 19 19 20 20 19 20 21
17 17 17 17 16 15 14 13 12 12 13 14 15 16 16 17 16 16 16 17 17 17 17 17 17 18 19 19 20 20 20 20 19
16 17 18 17 16 15 13 12 13 12 13 14 15 15 13 16 16 16 16 16 16 17 17 16 17 18 18 19 19 19 19 19 20
16 17 18 17 17 16 14 13 13 14 14 14 15 14 13 15 17 17 18 17 16 16 17 18 18 17 18 17 17 17 18 19 19
18 17 18 18 18 17 16 15 15 16 16 16 16 16 14 15 18 18 19 19 17 17 16 18 18 18 17 17 17 17 17 17 19
18 18 19 20 19 19 18 17 17 18 18 19 19 19 18 16 18 21 21 21 20 19 19 19 20 20 20 20 19 19 17 18 18
19 20 20 22 21 21 21 20 20 21 21 20 21 22 23 21 20 21 23 23 23 22 23 22 23 24 24 23 23 23 21 21 20
21 20 22 23 25 25 24 23 23 23 24 25 25 25 26 25 25 23 25 25 25 25 26 26 27 28 28 28 26 26 26 26 25
24 24 24 24 26 26 26 25 26 27 28 27 28 28 29 30 29 29 27 28 29 29 29 29 30 31 29 29 28 28 28 29 30
26 26 27 26 27 28 29 30 31 31 32 32 31 30 32 33 33 33 32 30 33 33 32 32 32 32 30 29 31 31 30 30 30
27 27 29 29 29 31 32 33 34 35 37 37 37 35 35 36 34 35 35 35 35 35 35 34 34 33 33 33 32 33 35 35 34
30 30 31 31 32 33 35 35 35 37 39 41 41 41 38 38 37 38 39 38 39 40 38 37 37 37 37 36 36 37 38 39 37
32 33 34 34 35 35 36 36 37 38 40 42 44 43 43 40 41 41 41 42 43 43 43 42 41 41 39 39 39 40 41 41 42
34 35 36 37 38 38 38 39 40 42 44 43 44 45 45 46 44 44 44 45 46 48 48 46 45 43 42 43 43 44 45 44 45
37 37 37 39 39 39 40 42 41 43 44 46 46 47 48 48 48 46 47 48 48 49 51 51 50 46 45 44 49 48 48 52 51
40 41 42 41 40 41 42 42 43 43 44 45 46 47 50 52 52 53 53 52 51 52 52 49 51 48 49 48 53 56 54 57 54

GFSFLT1_500_spd_084.txt.gz
Wind_Speed
11 12 12 13 14 15 16 15 15 15 15 15 16 17 16 16 17 17 18 19 20 20 21 20 21 20 20 19 18 18 18 18 18
12 13 14 15 15 15 16 16 15 14 14 14 14 14 14 15 16 17 18 18 20 20 20 20 20 20 19 18 18 18 18 19 19
14 15 15 14 15 16 15 14 14 14 14 13 14 14 14 14 16 17 17 18 19 19 19 19 19 18 18 17 17 16 17 18 18
15 15 14 15 15 15 15 15 14 13 12 12 12 13 14 15 16 17 17 17 17 17 16 17 17 18 18 17 16 17 17 17 17
16 15 16 16 15 15 16 15 15 13 12 11 12 15 14 14 15 15 14 15 15 15 16 17 17 17 17 17 17 17 18 17 16
17 16 17 17 16 16 16 15 13 12 12 13 13 14 15 13 13 13 13 14 15 15 15 16 16 16 16 16 17 16 16 16 16
19 18 18 17 17 16 16 15 14 13 13 14 15 15 15 13 11 13 14 15 15 16 16 16 16 17 16 16 16 15 15 15 16
20 19 18 18 17 17 17 16 15 15 15 15 16 16 16 15 14 14 15 16 17 18 18 18 18 18 19 18 18 17 16 16 15
20 20 20 19 19 18 18 17 17 17 17 17 17 17 17 18 17 18 18 19 20 20 20 20 20 21 21 22 22 22 21 19 17
20 21 21 20 21 21 20 18 19 20 20 19 20 20 19 20 21 23 23 24 24 24 24 23 23 23 23 23 24 24 24 24 23
22 21 22 22 23 23 22 21 21 23 23 23 23 22 22 23 22 24 27 27 27 28 28 28 27 27 26 26 27 27 27 26 26
22 22 22 23 23 24 25 25 24 26 27 27 26 26 25 26 26 27 29 30 30 32 33 32 31 31 30 30 29 29 28 27 28
24 23 25 25 25 25 27 28 28 26 28 30 30 30 30 30 30 30 31 32 33 35 34 36 35 35 35 34 33 31 29 30 30
26 26 27 26 27 27 28 29 30 31 33 34 35 35 35 35 35 34 33 34 35 37 38 38 38 38 37 36 36 34 33 32 33
28 29 28 28 28 28 29 29 30 32 34 35 35 37 37 37 38 39 39 38 38 38 40 40 42 41 40 40 39 39 37 37 38
31 30 30 31 30 31 30 30 32 34 36 37 38 39 39 39 41 42 41 42 42 42 42 43 45 45 45 45 44 44 43 42 41
33 32 32 32 32 31 32 33 34 36 38 38 40 41 41 41 42 43 43 43 45 45 45 45 47 49 49 48 49 48 47 45 42
33 33 34 34 34 33 34 35 35 37 39 40 42 42 41 43 43 45 46 47 47 47 47 48 49 49 49 51 51 52 51 48 43
35 34 34 35 36 37 38 39 39 39 41 41 42 43 44 46 45 45 47 50 50 50 51 53 54 54 52 51 46 51 45 46 50
35 36 37 38 39 38 40 42 43 43 43 43 43 44 45 45 47 47 50 51 52 54 53 56 57 56 56 57 53 58 48 52 49

GFSFLT1_500_spd_087.txt.gz
Wind_Speed
13 12 13 13 13 13 14 13 13 15 17 17 15 15 15 15 14 14 16 17 17 17 17 18 19 19 19 20 20 19 18 18 17
12 13 14 14 14 13 14 14 14 15 16 16 15 15 15 15 15 15 16 16 17 17 17 17 18 19 19 19 19 18 18 18 17
13 14 14 14 14 14 14 14 15 15 16 15 14 14 14 14 15 15 16 16 16 16 16 16 16 17 18 18 18 18 18 18 18
14 14 15 14 15 15 15 15 15 16 16 14 13 13 14 15 15 16 15 14 13 14 14 15 16 17 17 17 18 18 18 18 18
14 14 15 15 16 16 16 15 16 15 15 15 13 14 15 16 16 15 14 12 12 12 13 15 16 17 17 18 18 18 18 17 17
15 15 15 15 16 17 17 16 16 15 14 15 15 15 16 16 16 16 13 13 14 14 14 15 16 17 17 17 18 18 18 18 17
16 16 16 17 18 18 18 18 17 16 15 15 17 18 17 17 17 17 16 16 16 17 17 17 17 17 18 17 17 18 19 19 19
19 18 18 18 18 19 19 19 19 18 17 17 18 19 19 18 18 18 18 18 19 19 20 21 21 21 21 21 20 19 20 20 21
20 20 20 19 19 19 19 20 20 19 20 19 20 21 22 22 20 20 21 21 22 23 22 24 25 25 25 24 24 23 22 23 22
19 20 21 21 21 20 21 21 21 21 21 22 22 23 23 24 24 24 23 24 25 25 27 28 29 28 28 29 28 28 27 27 26
21 21 22 22 21 21 22 22 23 24 24 25 25 26 26 26 27 28 29 28 28 28 30 32 32 32 32 33 33 33 32 31 30
22 22 23 23 23 24 24 24 25 26 27 28 29 29 29 30 31 31 32 32 32 32 33 34 35 36 35 36 37 37 36 34 34
23 23 23 23 24 26 26 26 26 26 28 30 30 31 32 33 34 35 36 36 37 37 37 37 38 39 39 39 40 40 39 38 36
26 25 25 25 26 27 27 27 26 27 29 30 31 32 33 34 34 37 38 39 40 41 43 43 43 43 43 43 43 44 44 42 40
28 28 29 27 28 30 29 29 29 30 31 31 34 35 36 36 37 39 40 41 42 43 44 44 45 46 47 47 47 47 47 48 46
31 31 30 30 30 31 31 31 31 32 34 34 35 36 37 37 39 40 41 40 40 41 42 44 46 48 50 50 50 49 49 48 49
33 32 32 32 33 32 33 32 33 34 35 35 36 35 36 38 40 41 42 42 44 45 46 46 45 46 48 50 50 50 50 50 51
34 33 32 32 33 34 34 35 35 36 37 38 39 39 38 39 40 42 44 45 45 46 47 48 50 51 50 52 52 53 53 46 53
35 35 35 35 37 37 37 37 38 39 40 41 42 42 42 41 40 41 42 43 44 46 47 49 51 53 55 56 55 56 55 58 52
37 38 37 38 40 40 40 39 41 42 43 44 44 43 42 41 39 39 39 42 44 47 49 51 55 58 60 63 62 60 63 58 62

GFSFLT1_500_spd_090.txt.gz
Wind_Speed
8 8 10 11 11 13 14 12 12 13 13 14 15 16 15 15 14 14 14 14 14 15 15 15 15 15 15 16 17 17 16 17 17
9 10 11 12 12 13 13 13 13 13 14 15 15 15 14 13 13 14 15 15 15 14 13 13 13 13 15 17 17 16 16 16 16
11 11 11 12 13 13 13 13 14 14 15 16 16 14 14 13 14 15 15 15 13 12 12 11 12 14 15 15 16 16 16 16 15
11 12 11 12 13 12 13 14 15 15 15 16 15 14 14 15 16 16 16 15 14 13 14 14 14 14 14 15 15 16 16 17 16
13 13 12 12 12 13 14 14 15 15 15 15 14 15 16 17 17 16 16 15 15 16 16 15 15 16 16 16 16 16 15 16 16
14 14 14 13 12 13 14 14 15 17 16 15 14 16 18 18 19 18 18 17 17 18 18 18 17 18 19 18 18 18 19 17 17
16 16 16 14 14 14 15 15 16 17 18 17 16 16 18 19 19 19 19 20 20 21 21 21 20 21 21 21 21 22 21 22 21
18 16 16 16 15 15 16 16 17 17 18 19 19 19 20 20 21 21 22 22 22 22 23 24 24 25 24 25 26 25 25 25 24
19 18 17 17 16 17 16 17 18 18 18 20 21 22 22 23 23 24 25 25 25 25 26 27 28 28 28 28 29 29 30 30 29
20 20 19 18 18 18 17 18 19 20 20 21 22 24 24 25 26 27 28 28 29 29 29 30 31 31 31 32 33 34 34 34 33
22 21 21 20 19 18 18 20 21 21 22 22 23 25 26 27 28 29 30 32 33 33 34 34 34 34 36 36 37 38 38 38 37
23 22 22 20 19 19 19 21 22 23 24 25 25 26 26 27 28 31 34 35 37 37 37 37 37 38 39 40 41 41 42 42 40
24 24 24 22 22 22 21 23 23 24 25 26 26 27 28 29 30 32 34 36 37 38 39 40 40 42 43 43 43 43 43 44 44
26 26 25 24 24 24 24 24 25 26 27 28 28 28 29 30 32 34 36 38 39 40 40 40 40 41 42 43 44 45 45 46 45
28 28 28 26 26 26 26 26 27 29 29 29 30 30 31 31 35 37 38 39 41 41 41 41 41 42 43 44 45 46 45 45 47
30 31 30 29 28 28 28 29 30 31 32 31 32 31 32 33 36 37 39 41 42 42 42 42 43 42 43 45 46 47 48 47 46
35 33 31 30 30 30 31 31 32 33 34 34 34 33 32 36 38 39 40 42 43 44 43 43 43 43 44 46 47 48 50 51 51
36 33 33 32 32 32 32 33 35 35 35 36 37 37 36 37 38 40 41 43 44 42 41 41 42 44 46 47 49 51 52 54 56
38 36 35 34 36 35 36 38 37 38 37 38 39 40 41 42 41 40 40 40 41 40 40 40 41 45 49 52 49 51 54 54 48
38 39 38 38 38 39 38 35 37 40 39 41 42 43 44 44 45 42 39 38 37 38 38 40 43 47 50 45 49 47 48 47 47

GFSFLT1_500_spd_093.txt.gz
Wind_Speed
5 6 7 8 10 11 11 11 11 11 12 12 14 14 14 13 12 13 14 14 15 15 13 12 12 12 13 15 16 15 15 15 16
6 7 8 10 10 10 10 10 11 11 12 13 14 14 13 13 13 14 15 15 15 14 12 12 13 14 16 16 15 15 15 14 14
7 8 9 10 11 10 9 10 11 11 12 12 13 12 12 12 13 15 16 16 16 13 13 14 16 17 16 16 16 16 16 17 17
8 8 10 10 11 10 10 10 11 12 13 13 12 12 11 13 14 15 15 15 15 14 15 17 17 18 18 17 17 17 17 17 18
9 9 10 11 11 11 11 11 11 12 13 14 14 13 13 15 16 16 16 16 15 16 18 19 19 19 20 19 19 19 20 20 20
10 11 10 11 12 12 12 12 11 12 13 14 14 15 16 18 19 20 19 19 18 19 21 21 22 22 22 22 21 21 22 22 23
13 12 12 13 13 13 12 12 12 12 13 14 15 16 18 20 21 22 22 21 21 22 24 24 25 24 25 25 25 25 25 25 26
14 13 14 14 15 14 13 12 13 13 14 14 15 17 19 20 22 23 24 23 23 24 25 27 28 28 28 28 29 29 29 29 28
15 16 15 16 16 15 14 13 13 14 15 16 17 17 19 21 22 24 25 26 26 26 27 28 30 31 32 32 32 32 33 32 33
18 19 19 19 18 17 15 14 14 14 15 17 19 20 21 23 24 26 27 28 28 29 31 32 33 34 34 34 35 35 36 36 36
21 21 21 21 20 20 18 16 16 16 17 18 19 21 23 24 25 26 27 28 30 31 32 33 34 35 35 36 36 38 38 39 39
24 24 24 22 21 20 19 18 19 19 19 19 20 22 24 25 26 28 30 30 32 33 34 35 35 36 37 37 37 36 36 37 38
27 27 25 22 21 21 20 20 21 21 22 21 21 24 25 26 28 30 32 33 34 35 35 36 37 38 38 37 36 37 36 36 37
29 29 26 24 23 22 21 22 24 23 24 23 24 25 26 28 30 31 33 33 34 35 37 37 39 39 38 38 38 37 37 39 40
31 30 28 26 26 24 23 24 26 27 26 26 27 27 28 30 32 33 34 35 37 38 39 39 40 41 40 39 38 38 38 39 41
32 31 31 30 28 26 26 27 28 28 29 27 28 29 29 31 33 34 36 38 39 41 41 41 41 40 38 37 36 37 41 41 42
34 35 34 31 30 29 29 29 30 31 32 29 29 29 31 33 34 35 38 40 41 42 43 43 41 38 37 35 37 41 43 43 42
38 38 36 34 33 33 32 32 32 33 34 34 32 33 31 34 34 36 40 41 43 43 43 40 38 37 35 36 39 43 44 41 44
39 36 34 36 37 34 32 34 33 31 33 37 35 34 36 39 38 38 40 41 41 40 39 37 37 35 36 39 42 43 41 42 41
38 39 37 39 37 34 34 35 35 36 40 36 35 38 41 41 41 43 42 41 39 37 36 36 35 34 38 40 43 42 38 41 41

GFSFLT1_500_spd_096.txt.gz
Wind_Speed
5 5 5 5 6 7 8 8 8 8 8 10 11 11 11 10 9 12 14 15 15 14 14 13 14 15 17 17 16 16 16 16 17
6 6 6 6 7 8 8 8 8 9 9 10 10 10 9 9 10 13 14 15 16 15 13 14 15 17 17 18 18 18 18 18 18
8 7 6 7 8 8 8 8 8 9 10 10 10 10 10 10 11 14 15 16 16 16 15 16 18 19 19 20 20 19 19 19 19
8 7 7 7 8 8 7 7 8 8 9 10 11 11 11 12 13 15 16 17 18 17 17 19 20 20 21 21 21 21 21 21 22
9 8 8 8 8 8 8 7 7 8 9 10 11 11 11 12 14 16 17 18 19 18 19 20 21 22 22 23 23 24 24 23 24
10 10 9 10 9 9 8 8 8 9 10 10 10 11 12 13 15 16 17 18 20 20 20 21 22 23 24 25 25 26 27 27 26
12 11 11 10 11 10 9 9 9 10 10 11 11 11 12 14 16 18 19 20 22 23 23 23 24 25 26 26 27 29 29 29 29
14 13 12 11 12 12 11 11 11 11 11 12 13 13 15 17 18 19 21 23 25 26 26 26 27 28 28 29 29 30 30 30 31
16 15 14 13 14 13 13 13 14 13 13 13 14 15 16 18 19 20 22 24 25 26 27 28 28 29 30 30 31 31 31 31 32
18 17 17 15 16 15 15 15 15 15 15 15 17 17 18 19 21 22 24 25 26 27 28 29 30 30 32 32 31 31 31 30 31
20 20 19 18 18 18 17 16 16 16 17 18 19 20 20 21 22 24 25 26 26 28 29 30 31 32 32 33 32 32 32 32 32
23 23 22 21 20 19 19 18 17 18 19 20 21 22 22 24 26 26 27 27 28 29 30 31 32 32 32 33 33 33 32 33 32
26 26 25 24 23 22 21 20 20 21 21 21 23 24 24 25 27 27 28 29 30 31 32 33 33 34 35 34 34 35 33 32 32
28 29 28 27 26 25 25 23 23 24 23 24 25 25 26 27 28 29 30 31 32 33 35 36 35 36 37 36 34 32 32 33 32
31 31 30 29 29 29 26 25 26 26 26 26 26 27 28 28 28 29 31 33 34 36 37 38 38 38 38 36 34 32 30 31 34
35 34 33 32 33 31 28 27 28 28 28 27 29 29 29 29 30 31 32 35 37 39 40 41 39 39 37 35 34 33 29 31 36
38 38 37 36 35 33 31 30 30 31 30 30 31 30 30 31 31 32 34 37 39 41 42 42 41 39 37 35 34 31 33 35 37
45 43 41 39 36 35 34 35 33 33 32 33 33 31 31 34 31 33 37 40 42 42 44 42 40 38 36 35 33 32 36 37 39
52 49 44 40 40 39 37 37 35 33 34 31 31 32 34 31 29 34 37 40 42 44 45 42 39 37 36 35 32 34 37 38 38
46 41 41 37 38 35 34 35 36 35 34 35 34 35 36 33 35 36 41 40 43 45 44 40 38 36 36 31 33 35 37 38 38

GFSFLT1_500_spd_099.txt.gz
Wind_Speed
6 5 5 6 5 5 7 7 6 6 6 7 8 8 8 8 8 10 12 14 14 15 14 13 15 17 18 19 19 20 20 20 20
7 6 6 6 6 6 7 7 6 6 5 6 8 8 9 9 9 11 13 14 14 15 14 14 16 17 18 19 19 20 20 21 21
7 7 6 6 6 6 6 6 6 5 5 6 7 8 8 9 10 11 13 14 14 14 15 15 17 17 18 19 20 21 21 22 23
9 8 7 7 7 7 6 6 6 6 5 6 6 7 8 8 9 11 12 13 14 14 15 16 18 19 19 20 21 22 23 23 24
10 9 9 7 7 7 7 7 6 6 6 6 7 7 8 9 11 12 13 14 15 16 17 18 20 21 22 22 23 23 24 24 25
12 10 9 8 9 8 7 7 7 6 7 7 8 9 10 10 13 14 15 16 17 18 20 21 22 23 23 24 24 26 26 26 27
14 12 11 10 10 10 9 9 8 7 8 8 9 10 11 12 14 16 17 18 19 20 22 22 23 24 24 24 25 27 28 28 29
16 14 13 12 11 10 11 10 10 9 10 9 11 11 12 13 15 17 18 19 20 22 23 23 23 24 26 27 27 27 29 29 29
18 16 15 14 13 12 12 12 12 12 12 11 12 13 15 16 17 18 19 20 22 23 24 25 26 27 27 28 28 29 30 30 30
19 17 16 16 15 14 14 14 14 14 14 14 15 15 17 18 18 20 21 22 23 24 25 25 26 28 28 30 30 31 31 31 31
20 19 19 18 17 16 16 17 16 17 16 17 17 18 19 20 21 22 24 24 23 24 25 25 27 28 30 31 31 32 33 32 30
23 22 21 20 19 19 18 19 18 19 19 20 21 21 22 23 24 24 25 26 25 26 26 27 29 31 32 32 33 33 32 32 30
27 25 23 22 22 22 22 21 20 21 22 23 24 24 25 25 26 27 28 28 26 28 27 28 31 34 34 33 34 33 33 31 30
30 29 27 26 26 26 25 23 23 23 24 25 26 26 27 28 28 28 29 29 30 30 29 29 33 35 35 35 35 34 33 32 31
35 33 31 29 29 27 27 26 25 26 26 27 27 28 29 30 30 30 31 31 32 31 30 32 34 37 38 38 36 34 30 31 30
39 37 35 34 32 32 30 29 29 28 29 29 29 29 30 31 32 31 32 33 34 32 33 36 36 38 40 37 36 34 33 33 29
45 42 39 37 36 35 34 32 32 31 32 30 30 30 32 33 35 32 33 36 34 34 35 37 38 41 40 38 38 35 34 34 29
51 48 44 42 42 40 37 36 36 35 33 31 32 34 34 30 29 33 36 34 34 36 37 42 41 43 43 38 39 37 35 31 33
60 58 49 45 46 45 42 40 40 38 36 34 33 34 32 32 33 31 28 33 37 37 42 43 41 46 43 39 39 37 35 31 33
55 57 52 52 54 53 55 50 43 36 30 31 34 33 35 35 37 37 34 33 37 40 43 42 44 45 43 41 39 39 34 32 33

GFSFLT1_500_spd_102.txt.gz
Wind_Speed
8 6 5 3 4 5 5 5 5 3 4 3 4 5 6 7 7 8 10 11 11 12 12 13 14 15 16 17 18 19 19 20 21
7 6 5 5 5 4 4 5 5 3 3 3 4 5 6 6 6 7 9 10 11 11 12 13 14 16 17 18 18 19 20 21 22
8 7 5 5 5 4 4 5 5 4 3 3 3 4 5 6 6 8 10 11 12 12 13 13 15 16 17 19 19 19 21 22 22
9 7 6 6 5 5 5 5 4 4 3 3 3 4 5 6 7 9 11 11 12 13 14 14 16 17 19 19 20 20 21 23 24
11 8 8 6 6 6 6 6 5 4 4 4 4 5 5 6 8 9 11 12 13 15 16 16 17 18 19 20 21 22 23 24 25
13 11 9 7 8 7 7 6 5 6 5 5 5 5 6 7 9 10 12 13 14 16 17 19 19 19 20 22 22 23 24 24 25
14 13 11 10 9 8 7 7 6 7 7 6 6 7 7 8 10 11 12 14 16 17 19 20 21 21 21 22 23 24 25 25 27
16 15 14 12 11 10 9 8 8 8 8 8 8 9 9 10 11 13 14 16 17 19 20 21 22 21 21 24 24 25 25 26 28
19 17 16 14 13 11 11 10 9 9 9 9 10 11 11 12 13 14 15 17 18 20 21 22 22 22 22 25 26 26 27 28 29
21 19 18 17 16 14 13 12 11 11 11 11 12 13 14 14 15 15 16 18 20 21 22 22 23 22 24 27 28 28 29 30 32
23 21 21 19 18 16 16 15 15 13 14 14 15 15 16 17 15 18 18 20 22 23 23 24 24 23 25 28 30 30 31 31 32
25 23 23 22 21 19 19 18 18 17 18 17 17 18 19 19 19 18 21 22 24 24 24 26 25 24 27 30 32 32 33 31 32
27 26 26 24 24 23 22 21 21 20 21 20 20 21 21 22 22 22 23 25 26 27 26 26 25 26 28 30 34 35 34 32 33
31 30 29 28 27 27 26 24 23 23 24 23 23 24 24 25 24 24 26 27 28 28 29 29 25 26 30 31 35 35 34 34 34
36 35 34 32 30 30 30 28 26 26 27 26 26 26 26 26 27 27 28 29 31 29 30 30 29 29 29 31 35 34 34 34 35
39 39 38 38 36 35 35 32 31 30 29 29 29 29 27 28 28 30 31 31 30 31 34 32 30 31 31 33 35 36 35 34 34
40 42 43 43 41 41 37 37 35 35 33 31 31 30 30 29 30 32 33 30 32 34 32 29 33 38 35 33 37 36 34 34 35
46 48 48 47 46 45 44 41 42 41 38 35 33 33 34 33 33 32 31 32 35 36 32 37 38 41 39 35 38 40 36 35 37
52 52 53 52 51 52 50 53 49 44 43 41 39 36 35 34 31 31 32 35 38 35 38 37 39 42 41 37 40 40 34 36 38
49 45 47 54 55 54 55 51 51 49 45 44 44 36 29 30 31 32 31 32 35 37 35 36 40 41 43 39 41 40 37 39 37

GFSFLT1_500_spd_105.txt.gz
Wind_Speed
8 7 6 5 4 4 5 4 3 3 2 2 1 4 5 3 4 6 7 8 9 9 9 10 11 12 14 15 16 17 17 17 19
9 8 7 6 5 4 5 5 3 2 1 1 0 2 3 3 4 5 7 9 9 10 11 11 12 13 15 16 17 17 18 19 20
11 9 8 7 5 5 5 5 3 2 1 1 1 1 2 3 4 6 7 8 9 10 11 12 13 14 15 17 18 19 20 21 21
12 10 9 8 7 6 6 6 3 3 2 1 1 1 2 3 5 6 7 8 9 10 12 14 15 16 16 17 17 20 21 22 22
13 11 10 9 8 7 6 5 4 3 2 2 1 1 2 3 4 6 7 8 9 10 12 14 16 17 17 18 18 20 21 23 24
15 13 12 10 9 8 7 6 4 3 3 3 2 2 2 3 4 5 7 8 10 11 13 15 16 18 18 18 19 21 22 24 24
16 15 13 11 10 9 8 7 5 5 4 4 3 5 4 4 5 6 7 8 10 12 14 16 17 19 18 18 20 23 24 25 25
18 17 15 13 12 11 9 9 7 7 6 5 5 6 6 7 7 8 8 10 12 14 16 17 18 20 20 19 22 25 26 27 28
21 19 16 15 14 14 12 11 10 9 8 7 8 9 10 9 10 10 11 12 13 16 17 18 19 21 20 20 23 26 28 28 29
22 20 18 17 17 16 15 14 13 12 12 11 11 11 12 12 12 13 13 14 16 17 18 19 20 22 22 22 25 27 29 29 30
23 22 21 21 20 19 18 18 16 15 15 15 14 14 14 14 15 15 16 16 18 19 20 20 21 22 22 23 26 29 31 32 30
25 24 23 23 23 23 22 21 20 19 19 18 17 17 16 16 17 18 19 19 20 21 22 22 22 23 23 26 27 30 32 33 29
27 26 26 24 23 24 24 23 23 23 22 21 20 20 19 20 19 20 21 21 22 22 23 23 24 25 24 27 31 35 34 33 30
29 29 29 27 27 26 26 25 26 26 26 25 24 24 23 23 23 24 24 23 23 24 25 25 24 25 25 26 28 30 32 33 31
33 31 32 32 31 31 30 30 29 29 29 29 29 27 28 27 27 27 26 24 25 26 28 27 27 26 24 29 32 31 28 31 31
34 33 33 35 36 36 36 34 33 34 31 31 32 30 30 31 30 31 31 29 30 28 27 29 30 28 27 35 33 33 29 31 32
36 37 38 38 39 40 40 39 38 37 37 35 35 34 34 35 33 34 33 33 32 31 29 30 32 32 34 34 35 36 33 32 34
32 40 43 45 44 43 42 39 41 43 42 41 42 40 37 39 38 37 38 34 33 31 31 33 34 34 37 35 38 36 35 35 34
37 34 41 48 49 46 46 45 46 48 49 47 54 52 51 49 48 40 36 33 31 31 32 34 36 41 37 39 39 37 35 35 36
44 41 44 48 45 41 44 47 47 48 43 46 47 41 38 37 32 32 30 34 34 34 34 35 38 37 40 42 40 37 34 33 37

GFSFLT1_500_spd_111.txt.gz
Wind_Speed
11 10 9 7 6 6 6 6 8 8 7 5 5 4 4 4 2 1 4 4 5 5 6 7 9 11 13 14 15 15 16 18 20
12 11 10 8 8 7 7 7 8 8 7 6 5 4 4 3 1 1 3 4 4 4 5 7 9 12 14 15 16 15 16 18 20
13 12 11 9 8 8 8 8 8 8 7 6 5 5 4 3 2 1 1 2 3 4 6 8 10 13 15 15 16 16 17 18 20
14 14 12 11 10 9 9 9 9 8 7 6 5 5 4 4 3 2 2 2 4 5 7 9 11 13 15 16 17 17 18 19 20
16 15 14 12 11 10 10 10 9 8 7 7 6 6 5 4 4 4 4 4 5 6 8 10 12 14 15 15 16 17 17 17 19
17 16 16 14 12 11 12 12 10 8 8 7 7 7 7 6 6 7 6 6 7 8 10 12 14 15 15 16 17 17 17 18 19
17 16 17 15 14 13 13 12 11 9 9 9 9 9 8 8 9 9 8 8 9 10 12 14 15 16 16 17 18 17 18 17 19
18 18 18 16 15 14 14 13 11 11 10 10 10 10 11 10 11 10 11 10 11 12 13 15 17 18 17 19 20 19 19 18 20
20 20 19 17 17 16 15 14 14 13 12 12 12 12 12 12 13 13 13 13 14 15 16 17 19 20 21 21 22 20 20 20 21
22 20 19 19 18 18 17 17 16 15 15 15 15 14 14 15 15 16 16 16 17 18 18 21 22 22 22 24 24 23 22 20 24
23 22 21 21 20 19 19 19 18 17 17 18 17 17 17 17 17 18 18 19 20 21 23 24 24 24 26 27 25 25 24 23 25
25 24 24 23 22 22 22 21 20 19 19 19 19 19 19 18 18 18 20 22 23 24 26 26 26 27 29 30 25 25 24 26 27
26 25 24 23 23 24 24 23 23 23 22 21 21 20 21 21 20 21 21 23 24 26 26 28 27 27 31 34 28 27 26 28 30
24 24 24 24 24 26 26 26 24 24 24 24 24 23 22 23 25 24 25 25 25 26 27 28 29 30 33 33 30 31 30 29 33
24 23 24 24 25 26 28 27 27 28 28 28 27 28 27 28 28 28 26 27 28 28 31 32 33 35 36 35 30 29 32 31 35
25 24 23 24 25 27 28 29 30 30 31 31 32 31 31 31 31 31 29 30 32 38 42 43 40 43 42 37 32 30 30 33 38
24 22 23 23 26 24 28 33 33 33 33 33 34 33 33 34 36 38 42 40 40 43 40 41 44 45 42 38 34 30 29 35 38
28 25 27 27 24 26 30 28 30 29 28 33 37 37 38 38 32 34 34 31 33 36 35 37 39 42 37 33 31 31 33 35 35
28 24 26 28 29 32 31 35 36 34 34 37 43 40 40 39 40 38 38 37 37 40 39 39 40 35 32 33 34 32 35 37 39
26 24 26 27 26 30 29 32 36 35 38 41 30 35 31 35 32 32 29 32 36 40 42 42 41 36 36 38 36 35 36 35 40